| time (UTC) | temp C | wind direction | speed KPH | gust KPH | rain 1hr cm | rain 24hr cm | rain mn cm | humidity % | barometer mb |
| 20260503184911 | 21 | 0.0 | 0.0 | 0.00 | 0.00 | 0.00 | 42 | 1014.7 | |
| 20260503183911 | 20 | 0.0 | 0.0 | 0.00 | 0.00 | 0.00 | 44 | 1014.9 | |
| 20260503182911 | 21 | 0.0 | 0.0 | 0.00 | 0.00 | 0.00 | 44 | 1014.7 | |
| 20260503181911 | 21 | 0.0 | 0.0 | 0.00 | 0.00 | 0.00 | 43 | 1014.8 | |
| 20260503180911 | 21 | 0.0 | 0.0 | 0.00 | 0.00 | 0.00 | 41 | 1014.6 | |
| 20260503175911 | 21 | 0.0 | 0.0 | 0.00 | 0.00 | 0.00 | 41 | 1014.6 | |
| 20260503174911 | 21 | 0.0 | 0.0 | 0.00 | 0.00 | 0.00 | 41 | 1014.6 | |
| 20260503173911 | 21 | 0.0 | 0.0 | 0.00 | 0.00 | 0.00 | 40 | 1014.6 | |
| 20260503172911 | 21 | 0.0 | 0.0 | 0.00 | 0.00 | 0.00 | 41 | 1014.7 | |
| 20260503171911 | 21 | 0.0 | 0.0 | 0.00 | 0.00 | 0.00 | 40 | 1014.8 | |
| 20260503170911 | 21 | 0.0 | 0.0 | 0.00 | 0.00 | 0.00 | 37 | 1014.7 | |
| 20260503150911 | 22 | 0.0 | 0.0 | 0.00 | 0.00 | 0.00 | 35 | 1014.6 | |
| 20260503130911 | 20 | 0.0 | 0.0 | 0.00 | 0.00 | 0.00 | 38 | 1016.2 | |
| 20260503080909 | 17 | 0.0 | 0.0 | 0.00 | 0.00 | 0.00 | 48 | 1018.5 | |
| 20260503072909 | 13 | 0.0 | 0.0 | 0.00 | 0.00 | 0.00 | 67 | 1019.8 | |
| 20260503071911 | 14 | 0.0 | 0.0 | 0.00 | 0.00 | 0.00 | 66 | 1019.5 | |
| 20260503070909 | 13 | 0.0 | 0.0 | 0.00 | 0.00 | 0.00 | 68 | 1019.9 | |
| 20260503054910 | 11 | 0.0 | 0.0 | 0.00 | 0.00 | 0.00 | 62 | 1020.6 | |
| 20260503053909 | 11 | 0.0 | 0.0 | 0.00 | 0.00 | 0.00 | 63 | 1020.7 | |
| 20260503052909 | 10 | 0.0 | 0.0 | 0.00 | 0.00 | 0.00 | 65 | 1020.8 | |
| 20260503051909 | 11 | 0.0 | 0.0 | 0.00 | 0.00 | 0.00 | 63 | 1020.4 | |
| 20260503050909 | 10 | 0.0 | 0.0 | 0.00 | 0.00 | 0.00 | 69 | 1020.8 | |
| 20260503045910 | 10 | 0.0 | 0.0 | 0.00 | 0.00 | 0.00 | 62 | 1020.9 | |
| 20260503043909 | 10 | 0.0 | 0.0 | 0.00 | 0.00 | 0.00 | 63 | 1020.6 | |
| 20260503042910 | 9 | 0.0 | 0.0 | 0.00 | 0.00 | 0.00 | 65 | 1020.9 | |
| 20260503041909 | 9 | 0.0 | 0.0 | 0.00 | 0.00 | 0.00 | 70 | 1020.9 | |
| 20260503040909 | 9 | 0.0 | 0.0 | 0.00 | 0.00 | 0.00 | 66 | 1021.0 | |
| 20260503035910 | 9 | 0.0 | 0.0 | 0.00 | 0.00 | 0.00 | 65 | 1021.0 | |
| 20260503034909 | 9 | 0.0 | 0.0 | 0.00 | 0.00 | 0.00 | 67 | 1021.0 | |
| 20260503033909 | 9 | 0.0 | 0.0 | 0.00 | 0.00 | 0.00 | 65 | 1021.1 | |
| 20260503032909 | 9 | 0.0 | 0.0 | 0.00 | 0.00 | 0.00 | 65 | 1021.1 | |
| 20260503031910 | 10 | 0.0 | 0.0 | 0.00 | 0.00 | 0.00 | 66 | 1021.0 | |
| 20260503030910 | 9 | 0.0 | 0.0 | 0.00 | 0.00 | 0.00 | 69 | 1021.3 | |
| 20260503025909 | 10 | 0.0 | 0.0 | 0.00 | 0.00 | 0.00 | 73 | 1021.3 | |
| 20260503024909 | 10 | 0.0 | 0.0 | 0.00 | 0.00 | 0.00 | 67 | 1021.3 | |
| 20260503023909 | 10 | 0.0 | 0.0 | 0.00 | 0.00 | 0.00 | 67 | 1021.3 | |
| 20260503022909 | 10 | 0.0 | 0.0 | 0.00 | 0.00 | 0.00 | 71 | 1021.3 | |
| 20260503021909 | 10 | 0.0 | 0.0 | 0.00 | 0.00 | 0.00 | 72 | 1021.5 | |
| 20260503020909 | 10 | 0.0 | 0.0 | 0.00 | 0.00 | 0.00 | 72 | 1021.3 | |
| 20260503015909 | 10 | 0.0 | 0.0 | 0.00 | 0.00 | 0.00 | 75 | 1021.5 | |
| 20260503014909 | 10 | 0.0 | 0.0 | 0.00 | 0.00 | 0.00 | 69 | 1021.4 | |
| 20260503013909 | 10 | 0.0 | 0.0 | 0.00 | 0.00 | 0.00 | 70 | 1021.7 | |
| 20260503012910 | 10 | 0.0 | 0.0 | 0.00 | 0.00 | 0.00 | 70 | 1021.7 | |
| 20260503011909 | 10 | 0.0 | 0.0 | 0.00 | 0.00 | 0.00 | 72 | 1021.8 | |
| 20260503010909 | 10 | 0.0 | 0.0 | 0.00 | 0.00 | 0.00 | 75 | 1021.9 | |
| 20260503005909 | 10 | 0.0 | 0.0 | 0.00 | 0.00 | 0.00 | 77 | 1021.7 | |
| 20260503004909 | 10 | 0.0 | 0.0 | 0.00 | 0.00 | 0.00 | 75 | 1021.6 | |
| 20260503003910 | 10 | 0.0 | 0.0 | 0.00 | 0.00 | 0.00 | 77 | 1021.8 | |
| 20260503002909 | 10 | 0.0 | 0.0 | 0.00 | 0.00 | 0.00 | 77 | 1021.9 | |
| 20260503001909 | 10 | 0.0 | 0.0 | 0.00 | 0.00 | 0.00 | 81 | 1022.1 | |
| 20260503000909 | 10 | 0.0 | 0.0 | 0.00 | 0.00 | 0.00 | 72 | 1022.1 | |
| 20260502235909 | 10 | 0.0 | 0.0 | 0.00 | 0.00 | 0.00 | 73 | 1022.2 | |
| 20260502234909 | 10 | 0.0 | 0.0 | 0.00 | 0.00 | 0.00 | 83 | 1022.3 | |
| 20260502233909 | 10 | 0.0 | 0.0 | 0.00 | 0.00 | 0.00 | 78 | 1022.3 | |
| 20260502232909 | 10 | 0.0 | 0.0 | 0.00 | 0.00 | 0.00 | 77 | 1022.5 | |
| 20260502231909 | 11 | 0.0 | 0.0 | 0.00 | 0.00 | 0.00 | 75 | 1022.3 | |
| 20260502230909 | 11 | 0.0 | 0.0 | 0.00 | 0.00 | 0.00 | 76 | 1022.2 | |
| 20260502225909 | 11 | 0.0 | 0.0 | 0.00 | 0.00 | 0.00 | 74 | 1022.3 | |
| 20260502224909 | 11 | 0.0 | 0.0 | 0.00 | 0.00 | 0.00 | 75 | 1022.3 | |
| 20260502223909 | 11 | 0.0 | 0.0 | 0.00 | 0.00 | 0.00 | 78 | 1022.3 | |
| 20260502222909 | 11 | 0.0 | 0.0 | 0.00 | 0.00 | 0.00 | 75 | 1022.2 | |
| 20260502221908 | 12 | 0.0 | 0.0 | 0.00 | 0.00 | 0.00 | 69 | 1021.9 | |
| 20260502220909 | 11 | 0.0 | 0.0 | 0.00 | 0.00 | 0.00 | 75 | 1022.1 | |
| 20260502215909 | 12 | 0.0 | 0.0 | 0.00 | 0.00 | 0.00 | 71 | 1022.0 | |
| 20260502214909 | 11 | 0.0 | 0.0 | 0.00 | 0.00 | 0.00 | 72 | 1022.1 | |
| 20260502213909 | 12 | 0.0 | 0.0 | 0.00 | 0.00 | 0.00 | 71 | 1021.9 | |
| 20260502212909 | 12 | 0.0 | 0.0 | 0.00 | 0.00 | 0.00 | 71 | 1021.9 | |
| 20260502211908 | 12 | 0.0 | 0.0 | 0.00 | 0.00 | 0.00 | 76 | 1022.0 | |
| 20260502210909 | 12 | 0.0 | 0.0 | 0.00 | 0.00 | 0.00 | 76 | 1021.9 | |
| 20260502205909 | 12 | 0.0 | 0.0 | 0.00 | 0.00 | 0.00 | 75 | 1021.9 | |
| 20260502204909 | 12 | 0.0 | 0.0 | 0.00 | 0.00 | 0.00 | 75 | 1022.0 | |
| 20260502203908 | 12 | 0.0 | 0.0 | 0.00 | 0.00 | 0.00 | 78 | 1021.8 | |
| 20260502202908 | 13 | 0.0 | 0.0 | 0.00 | 0.00 | 0.00 | 73 | 1021.8 | |
| 20260502201909 | 13 | 0.0 | 0.0 | 0.00 | 0.00 | 0.00 | 72 | 1021.7 | |
| 20260502200908 | 13 | 0.0 | 0.0 | 0.00 | 0.00 | 0.00 | 71 | 1021.5 | |
| 20260502195912 | 13 | 0.0 | 0.0 | 0.00 | 0.00 | 0.00 | 71 | 1021.4 | |
| 20260502194908 | 13 | 0.0 | 0.0 | 0.00 | 0.00 | 0.00 | 70 | 1021.4 | |
| 20260502193908 | 13 | 0.0 | 0.0 | 0.00 | 0.00 | 0.00 | 69 | 1021.3 | |
| 20260502192908 | 15 | 0.0 | 0.0 | 0.00 | 0.00 | 0.00 | 66 | 1021.1 | |
| 20260502191908 | 15 | 0.0 | 0.0 | 0.00 | 0.00 | 0.00 | 65 | 1020.8 | |
| 20260502190909 | 15 | 0.0 | 0.0 | 0.00 | 0.00 | 0.00 | 62 | 1020.5 | |
| 20260502185909 | 16 | 0.0 | 0.0 | 0.00 | 0.00 | 0.00 | 58 | 1020.0 |